sat.trackr.live / text

‹ back to catalog

STARLINK-30217

NORAD 57450 · 2023-105W

PAYLOAD ACTIVE UNKNOWN

§ Identity

Operator
Country
US
Launch date
2023-07-24
Launch site
AFETR
Launch vehicle
Mass (kg)
RCS (m²)

Purposes: comms

External: N2YO · Heavens-Above · Gunter

§ Orbital elements

Epoch: 2026-09-20T14:52:39.641664Z

Period
94.27 min
Inclination
43.0041°
Eccentricity
0.0001525
Mean motion
15.27580416 rev/d
Perigee alt
482.0 km
Apogee alt
484.1 km
Semi-major
6,861.2 km
B*
1.6389e-5
RAAN
228.0233°
Arg perigee
262.2669°
Mean anomaly
97.8010°
Rev number
17,552

§ Raw data

STARLINK-302171 57450U 23105W   26263.61990326  .00000189  00000+0  16389-4 0  99952 57450  43.0041 228.0233 0001525 262.2669  97.8010 15.27580416175525

JSON: /api/v1/satellites/57450 · /tle

For live sub-satellite position, see the globe view (requires WebGL).

§ Visibility from observer

Set your observer location to see the next 7 days of passes ≥ 10°. The values pass through the URL so the page stays shareable.

No JS? Fill the form by hand. The geolocation button needs JavaScript.